Regional Weather Roundup
Issued by NWS

Home | Current Version | Previous Version | Graphics & Text | Print | Product List | Glossary On
Versions: 1 2 3 4 5 6 7 8 9 10 11 12 13 14 15 16 17 18 19 20 21 22 23 24 25 26 27
000
ASUS45 KSLC 101510
RWRUT

UTAH REGIONAL WEATHER ROUNDUP
NATIONAL WEATHER SERVICE SALT LAKE CITY UT
800 AM MST SUN DEC 10 2017

UTZ001>011-023>025-101600-

NORTHERN UTAH

CITY           SKY/WX    TMP DP  RH WIND       PRES   REMARKS
BRIGHAM CITY   PTCLDY    15  11  84 CALM      30.67S
HILL AFB       PTCLDY    19  11  71 E15       30.63R WCI   5
LOGAN          CLOUDY    19  13  77 CALM      30.68R
OGDEN          PTCLDY    20  12  71 S6        30.64R WCI  12
SALT LAKE CITY PTCLDY    23  18  81 SE5       30.65S WCI  17
TOOELE VALLEY  PTCLDY    18  14  86 SE6       30.66R WCI   9
WENDOVER       MOCLDY    13  11  92 CALM      30.66S
HEBER CITY     FOG       10   7  85 CALM      30.62S VSB<1/4
WEST JORDAN    PTCLDY    17  15  90 NW3       30.65R

$$

UTZ011>015-024>027-101600-

CENTRAL/NORTHEAST UTAH

CITY           SKY/WX    TMP DP  RH WIND       PRES   REMARKS
PROVO AIRPORT  PTCLDY    15  12  88 E3        30.67S
MOAB/CANYONLAN MOCLDY    12   1  61 CALM      30.59R
DELTA          CLOUDY     9   5  85 E3        30.64S
PRICE          PTCLDY    17  -4  39 N3        30.55S
RICHFIELD      CLEAR      7   5  92 CALM      30.64S
ROOSEVELT      CLOUDY     9   3  78 CALM      30.65R
VERNAL         CLOUDY    11   4  73 W3        30.62R

$$

UTZ013>016-019>022-027-101600-

SOUTHERN UTAH

CITY           SKY/WX    TMP DP  RH WIND       PRES   REMARKS
BRYCE CANYON   PTCLDY     6 -10  47 W7        30.58S WCI  -6
CEDAR CITY     MOCLDY    12   5  73 CALM      30.57R
MILFORD        CLOUDY     8   5  87 S5        30.62R WCI   0
ST GEORGE      MOSUNNY   30   8  39 S5        30.54R WCI  25
HANKSVILLE     CLOUDY     7  -4  61 CALM      30.63R
KANAB          CLEAR     25   0  33 NE9       30.55R WCI  15
BLANDING         N/A     25   0  33 CALM      30.61S

$$

REGIONAL REPORTS     COLORADO/ARIZONA

CITY           SKY/WX    TMP DP  RH WIND       PRES   REMARKS
CRAIG, CO      CLOUDY     2  -1  88 CALM      30.60R
GRAND JUNCTION CLOUDY    19   6  57 SE6       30.60R WCI  11
RIFLE, CO      CLOUDY    14   5  67 CALM      30.63S
MONTROSE, CO   CLOUDY    14   1  56 S7        30.63R WCI   4
CORTEZ, CO     CLOUDY     5  -5  63 NE9       30.56R WCI  -9
COLORADO CITY    N/A      9  -6  52 CALM      30.54R
PAGE, AZ       CLOUDY    27  13  55 CALM      30.56R HAZE
GRAND CANYON   MOCLDY    23  -7  26 VRB3      30.53R
KINGMAN, AZ    PTCLDY    29   3  33 E3        30.42S
FLAGSTAFF, AZ  PTCLDY    26   2  35 NE5       30.51R WCI  20

$$

REGIONAL REPORTS    NEVADA/IDAHO/WYOMING

CITY           SKY/WX    TMP DP  RH WIND       PRES   REMARKS
LAS VEGAS, NV  PTCLDY    41   8  25 SW5       30.42S
ELY, NY        MOCLDY     6  -4  63 S12       30.60S WCI  -9
ELKO, NV       MOCLDY     6   3  87 CALM      30.62S
POCATELLO, ID  CLOUDY     4   0  83 NW5       30.65R FOG     WCI  -5
BURLEY, ID     FOG       17  13  84 CALM      30.64S VSB 1/2
FORT BRIDGER,    N/A     30   0  27 W10       30.57R WCI  21
EVANSTON, WY   CLOUDY    19   4  51 VRB3      30.57S
ROCK SPRINGS,  CLOUDY    22   3  44 W9        30.51F WCI  12

$$




USA.gov is the U.S. government's official web portal to all federal, state and local government web resources and services.